Regional Weather Roundup
Issued by NWS

Home | Current Version | Previous Version | Graphics & Text | Print | Product List | Glossary Off
Versions: 1 2 3 4 5 6 7 8 9 10 11 12 13 14 15 16 17 18 19 20 21 22 23 24 25 26 27 28 29 30 31 32 33 34 35 36 37 38 39 40 41 42 43 44 45 46 47 48 49 50

000
ASUS43 KTOP 270659
RWRKS

WEATHER ROUNDUP FOR KANSAS
NATIONAL WEATHER SERVICE GOODLAND KS
100 AM CST FRI FEB 27 2015

NOTE:  "FAIR" INDICATES FEW OR NO CLOUDS BELOW 12,000 FEET WITH NO
SIGNIFICANT WEATHER AND/OR OBSTRUCTIONS TO VISIBILITY.

KSZ001>006-013>018-027>032-041>047-270800-
NORTHWEST KANSAS

CITY           SKY/WX    TMP DP  RH WIND       PRES   REMARKS
GOODLAND       CLOUDY    13   2  61 SE14      30.31F WCI  -2
HAYS           MOCLDY    10  -6  48 E7        30.50R
HILL CITY      CLOUDY    10  -2  58 E8        30.49S
RUSSELL        CLOUDY     8   1  73 E8        30.51R
$$

KSZ061>065-074>080-084>089-270800-
SOUTHWEST KANSAS

CITY           SKY/WX    TMP DP  RH WIND       PRES   REMARKS
DODGE CITY     CLOUDY    16  -2  45 E8        30.42F
ELKHART          N/A     16   6  65 E10         N/A  WCI   4
GARDEN CITY    CLOUDY    16   1  51 E9        30.38S
GREAT BEND     CLOUDY    12  -2  52 E8        30.52R
LIBERAL        CLOUDY    19   0  42 E12       30.38S WCI   7
$$

KSZ066>073-081>083-090>101-270800-
SOUTHEAST KANSAS

CITY           SKY/WX    TMP DP  RH WIND       PRES   REMARKS
CHANUTE        CLEAR     11   0  61 NE12      30.56R WCI  -3
COFFEYVILLE    PTCLDY    15   1  53 N13       30.57R WCI   1
HUTCHINSON     PTCLDY    11   0  61 NE5       30.55R
MEDICINE LODGE   N/A     16   1  51 NE12      30.51S WCI   3
NEWTON         CLEAR      9  -2  61 NE6       30.54R
PARSONS        PTCLDY    14   1  56 N9        30.58R
WICHITA INTL   PTCLDY    13   0  56 NE13      30.55R WCI  -2
WICHITA JABRA  CLEAR     10   2  69 NE9       30.54S
WINFIELD       PTCLDY    14   1  56 NE9       30.56R
$$

KSZ007>012-019>026-033>040-048>060-102>105-270800-
NORTHEAST KANSAS

CITY           SKY/WX    TMP DP  RH WIND       PRES   REMARKS
CONCORDIA      CLEAR      6   0  76 NE5       30.56S
EMPORIA        CLEAR      7   0  73 NE7       30.55S
LAWRENCE       CLEAR      3  -3  76 N5        30.60F
MANHATTAN      CLEAR      6   0  76 CALM      30.60R
OLATHE IND     CLEAR      3  -3  76 N7        30.58S
OLATHE EXE     CLEAR      7  -4  60 N10       30.56S WCI  -8
SALINA         CLEAR     10   0  63 E3        30.58R
TOPEKA BILLARD CLEAR      6  -2  69 N3        30.61S
TOPEKA FORBES  CLEAR      7  -1  70 N7        30.57F
$$


USA.gov is the U.S. government's official web portal to all federal, state and local government web resources and services.